Location: Newark
(42.8833°N, 20.3500°E)
Time: 00:26:56
(UTC+00:00)

ISS - Visible Passes

Search period start: 23 July 2019 00:00
Search period end: 02 August 2019 00:00
Orbit: 409 x 418 km, 51.6° (Epoch: 23 July)

Date Brightness Start Highest point End Pass type
(mag) Time Alt. Az. Time Alt. Az. Time Alt. Az.
23 Jul -0.9 20:13:33 10° NW 20:15:57 18° N 20:18:21 10° NE visible
23 Jul -1.5 21:50:35 10° NW 21:53:11 25° N 21:53:11 25° N visible
24 Jul -1.1 19:23:52 10° WNW 19:26:24 19° N 19:28:55 10° NE visible
24 Jul -1.4 21:01:18 10° NW 21:03:55 21° NNE 21:05:15 17° NE visible
24 Jul -0.7 22:37:45 10° NW 22:38:03 12° NW 22:38:03 12° NW visible
25 Jul -1.1 20:11:56 10° NW 20:14:23 19° N 20:16:50 10° NE visible
25 Jul -1.5 21:48:29 10° NW 21:50:10 25° NNW 21:50:10 25° NNW visible
26 Jul -1.1 19:22:26 10° NW 19:24:49 18° N 19:27:12 10° NE visible
26 Jul -2.1 20:59:14 10° NW 21:02:14 30° NNE 21:02:19 30° NNE visible
27 Jul -1.1 18:32:48 10° NW 18:35:14 18° N 18:37:39 10° NE visible
27 Jul -1.7 20:09:57 10° NW 20:12:44 24° NNE 20:14:30 16° ENE visible
27 Jul -1.1 21:46:24 10° WNW 21:47:19 17° WNW 21:47:19 17° WNW visible
28 Jul -1.4 19:20:36 10° NW 19:23:11 20° N 19:25:45 10° ENE visible
28 Jul -2.5 20:57:03 10° NW 20:59:31 42° NNW 20:59:31 42° NNW visible
29 Jul -2.7 20:07:45 10° NW 20:10:55 38° NNE 20:11:45 32° ENE visible
29 Jul -0.6 21:44:32 10° WNW 21:44:34 10° WNW 21:44:34 10° WNW visible
30 Jul -2.1 19:18:27 10° NW 19:21:25 28° NNE 19:24:00 12° ENE visible
30 Jul -2.0 20:55:00 10° WNW 20:56:49 29° WNW 20:56:49 29° WNW visible
31 Jul -1.7 18:29:07 10° NW 18:31:51 23° NNE 18:34:34 10° ENE visible
31 Jul -3.9 20:05:33 10° NW 20:08:55 84° NE 20:09:07 76° E visible
01 Aug -3.2 19:16:12 10° NW 19:19:28 51° NNE 19:21:26 21° E visible
01 Aug -1.2 20:53:19 10° W 20:54:15 15° W 20:54:15 15° W visible
